Regional Weather Roundup
Issued by NWS Northern Indiana

Home | Current Version | Previous Version | Text Only | Print | Product List | Glossary Off
Versions: 1 2 3 4 5 6 7 8 9 10 11 12 13 14 15 16 17 18 19 20 21 22 23 24 25 26 27 28 29 30 31 32 33 34 35 36 37 38 39 40 41 42 43 44 45 46 47 48 49 50

000
ASUS43 KIWX 311010
RWRIWX

KIWX WEATHER ROUNDUP
NATIONAL WEATHER SERVICE NORTHERN INDIANA
600 AM EDT FRI JUL 31 2015

NOTE: "FAIR" INDICATES FEW OR NO CLOUDS BELOW 12,000 FEET WITH NO
SIGNIFICANT WEATHER AND/OR OBSTRUCTIONS TO VISIBILITY.

* THESE STATIONS ARE NOT UNDER NWS QUALITY CONTROL. THEY ALSO MAY NOT
  REPORT WEATHER SUCH AS PRECIPITATION OR FOG.

INZ001>027-311100-
NORTHERN INDIANA

CITY           SKY/WX    TMP DP  RH WIND       PRES   REMARKS
GARY*          CLEAR     66  63  88 SW7       30.03F
VALPARAISO     CLEAR     65  60  84 W6        30.04S
MICHIGAN CITY* CLEAR     63  63 100 CALM      30.02F
LAPORTE*       CLEAR     67  60  80 W3        30.03S
KNOX*          CLEAR     63  63 100 W5        30.02S
SOUTH BEND     CLEAR     66  61  84 W7        30.02S
GOSHEN         CLEAR     63  59  87 CALM      30.01S
MONTICELLO*    CLEAR     64  64  98 CALM      30.04S
LOGANSPORT*    CLEAR     63  59  88 W6        30.04F
ROCHESTER*     CLEAR     68  64  88 W6        30.03S
WARSAW*        CLEAR     63  61  94 W5        30.02S
ANGOLA*        CLEAR     64  61  88 NW3       30.00F
FORT WAYNE     CLEAR     66  62  87 W8        30.01F
HUNTINGTON*    CLEAR     66  62  86 W6        30.02S
PERU/GRISSOM   CLEAR     64  62  91 W7        30.03S
MARION*        CLEAR     62  61  94 W3        30.04S

$$
INZ028>050-311100-
CENTRAL INDIANA

CITY           SKY/WX    TMP DP  RH WIND       PRES   REMARKS
LAFAYETTE      CLEAR     63  62  97 CALM      30.05S FOG
KOKOMO*        CLEAR     66  61  82 W7        30.04S
MUNCIE*        CLEAR     65  61  87 W8        30.03F
INDIANAPOLIS   CLEAR     69  62  78 W6        30.03S

$$
MIZ043>046-050>051-056>058-064>065-071>073-077>080-311100-
SOUTHWEST LOWER MICHIGAN

CITY           SKY/WX    TMP DP  RH WIND       PRES   REMARKS
BATTLE CREEK   CLEAR     66  59  78 W6        29.99S
BENTON HARBOR  CLEAR     71  63  75 W8        29.99F
COLDWATER*     CLEAR     61  58  90 W3        30.00S
HILLSDALE*     CLEAR     65  60  84 W6        30.00S
HOLLAND        CLEAR     70  61  73 W8        29.98F
GRAND RAPIDS   PTCLDY    65  60  84 SW7       29.97S
KALAMAZOO      CLEAR     64  58  80 CALM      30.00R
STURGIS*       CLEAR     63  59  88 CALM      30.00S
THREE RIVERS*  FAIR      62  59  90 CALM      30.01S

$$
OHZ001>008-015>018-024>025-311100-
NORTHWEST OHIO

CITY           SKY/WX    TMP DP  RH WIND       PRES   REMARKS
WAUSEON*       FAIR      61  59  94 W5        29.98S
DEFIANCE       LGT RAIN  64  58  80 CALM      29.99S
FINDLAY        PTCLDY    65  58  78 SW7       29.98F
TOLEDO EXPRESS CLEAR     64  57  78 W8        29.97S
TOLEDO METCALF CLEAR     65  57  75 SW6       29.97F
LIMA           MOCLDY    66  60  81 SW7       30.01S

$$
AND FOR LAKE MICHIGAN COASTAL AND OPEN LAKE BUOY OBSERVATIONS

STATION/POSITION TEMP    WIND        PRES    VSBY  WAVE
                 AIR SEA DIR/SP/G                  HT/PER
                 (F)     (DEG/KT/KT) (MB)    (MI)  (FT/S)
CALUMET HARBOR    72     260/  2/  4   N/A
MICHIGAN CITY     74     230/ 11/ 12   N/A
BURNS HARBOR      74     240/  8/ 10 1016.9F
SAINT JOSEPH      73     250/  7/ 11 1016.6R
4 MI NW BRIDGMAN  74 74  310/ 12/ 14   N/A           2/ 3
MICHIGAN CITY     74 73  280/  8/ 12   N/A           2/ 4

$$
&&


USA.gov is the U.S. government's official web portal to all federal, state and local government web resources and services.